Simultaneous Nadir Overpasses (SNOs) Predictions

Prediction of SNOs between FY3D and TERRA Satellite Orbit:

Table of predicted SNOs for the next 14.0 days since TLE Epoch: 3/5/2022
Index Date (FY3D) Time (FY3D) Lat,Lon (FY3D) SZA (FY3D ) Date (TERRA) Time (TERRA) Lat,Lon (TERRA) SZA (TERRA ) Distance(km) Time Diff (sec)
1 03/05/2022 14:06:25 71.60, -32.74 77.46 03/05/2022 14:07:34 71.46, -31.22 77.29 55.61 69
2 03/05/2022 14:56:57 -70.98, 135.66 103.20 03/05/2022 14:57:11 -70.96, 135.61 103.22 3.38 14
3 03/05/2022 15:47:42 70.85, -56.81 76.66 03/05/2022 15:46:38 70.86, -56.89 76.67 3.36 64
4 03/08/2022 05:33:27 -71.35, -84.05 103.83 03/08/2022 05:34:38 -71.24, -83.35 103.96 27.94 71
5 03/08/2022 06:24:07 70.96, 83.93 75.76 03/08/2022 06:24:08 70.98, 83.88 75.77 2.54 1
6 03/08/2022 07:14:49 -70.86,-108.59 104.36 03/08/2022 07:13:38 -70.86,-108.66 104.36 2.88 71
7 03/10/2022 21:00:31 71.08,-135.34 74.85 03/10/2022 21:01:37 71.08,-135.36 74.85 1.04 66
8 03/10/2022 21:51:13 -70.98, 32.15 105.27 03/10/2022 21:51:07 -70.97, 32.10 105.28 2.05 6
9 03/10/2022 22:41:51 70.48,-159.72 74.21 03/10/2022 22:40:40 70.54,-160.91 74.29 44.53 71
10 03/13/2022 12:27:38 -71.09, 172.88 106.18 03/13/2022 12:28:37 -71.06, 172.84 106.22 3.38 59
11 03/13/2022 13:18:23 70.96, -19.60 73.67 03/13/2022 13:18:04 70.96, -19.68 73.67 2.98 19
12 03/13/2022 14:08:53 -70.23, 148.91 107.09 03/13/2022 14:07:45 -70.24, 146.90 107.05 75.68 68
13 03/16/2022 03:54:48 71.08, 121.13 72.77 03/16/2022 03:55:33 71.09, 121.13 72.77 0.91 45
14 03/16/2022 04:45:30 -70.98, -71.38 107.36 03/16/2022 04:45:03 -70.98, -71.41 107.36 0.97 27
15 03/18/2022 19:21:55 -71.10, 69.34 108.27 03/18/2022 19:22:32 -71.10, 69.39 108.27 1.72 37
16 03/18/2022 20:12:40 70.97,-123.14 71.59 03/18/2022 20:11:59 70.99,-123.14 71.61 1.92 41



Historial Predications of SNOs between FY3D and TERRA
